Find Starlink 36926

NORAD ID: 67999 Int'l Des: 2026-039 Owner: SPXS Country: US Constellation: starlink operational
LEOCIRCULAR

当前视图

正在加载3D地球...

关于 Starlink 36926

正在加载描述...

即将过境

Passes for default location (London). Set your location on the main map for personalized predictions.

高度历史

Loading altitude history...

两行轨道根数

1 67999U 26039P 26151.44035838 .00034198 00000-0 12469-2 0 9999
2 67999 43.0006 301.2026 0000995 229.5631 130.5134 15.27569185 14360
Epoch: May 31, 2026 • Age: 10 hours

当前状态

高度 485.1 km
速度 7.63 km/s
星下点 36.98°N, 131.41°W
发射日期 Feb 27, 2026
运行时间 0.2 years
类型 internet

技术详情

分类 Payload
质量 575.00 kg
干质量 530.00 kg
总质量 575.00 kg
长度 0.30 m
直径 4.10 m
跨度 29.00 m
形状 Box + pan
制造商 SPXS
平台类型 Starlink V2MO
阶段状态 In Orbit
所有者/国家 SPXS/US

Most Searched